User: anonymous   Login
Location: Caltech
(34.1382°N, 118.1253°W)
Time: 20:28:48
(UTC-07:00)
Language:

SEDSat Delta rocket - Orbit

View from above orbital plane
View from above orbital plane
View from above satellite
View from above satellite

Ground track
Ground track

The orbit data is extracted from the following two-line orbital elements,

1 25510U 98061C   14297.16814644  .00001021  00000-0  17114-3 0  9906
2 25510 031.4357 283.2416 0332654 150.6375 297.9371 14.35934092838135
Epoch (UTC): 24 October 2014 04:02:07
Eccentricity: 0.0332654
inclination: 31.4357°
perigee height: 534 km
apogee height: 1010 km
right ascension of ascending node: 283.2416°
argument of perigee: 150.6375°
revolutions per day: 14.35934092
mean anomaly at epoch: 297.9371°
orbit number at epoch: 83813

The dashed part of the orbit path shows where the satellite is in the earth's shadow,  

DLR